Terminal Aerodrome Forecast
Issued by NWS Boston, MA

Home | Current Version | Previous Version | Text Only | Print | Product List | Glossary Off
Versions: 1 2 3 4 5 6 7 8 9 10 11 12 13 14 15 16 17 18 19 20 21 22 23 24 25 26 27 28 29 30 31 32 33 34 35 36 37 38 39 40 41 42 43 44 45 46 47 48 49 50
000 FTUS41 KBOX 300824 AAB TAFPVD TAF AMD KPVD 300824Z 3008/3106 20004KT 1/2SM FG BKN002 FM301100 21005KT 1SM BR BKN008 FM301200 22008KT P6SM SCT030 FM301500 21015KT P6SM BKN100 FM301600 21014G21KT P6SM SCT250=

USA.gov is the U.S. government's official web portal to all federal, state and local government web resources and services.